Regional Weather Roundup
Issued by NWS Cleveland, OH

Home | Current Version | Previous Version | Graphics & Text | Print | Product List | Glossary On
Versions: 1 2 3 4 5 6 7 8 9 10 11 12 13 14 15 16 17 18 19 20 21 22 23 24 25 26 27 28 29 30 31 32 33 34 35 36 37 38 39 40 41 42 43 44 45 46 47 48 49 50
692
ASUS41 KCLE 050902
RWRCLE
OHIO REGIONAL WEATHER ROUNDUP
NATIONAL WEATHER SERVICE CLEVELAND, OH
400 AM EST MON DEC 05 2016

NOTE: "FAIR" INDICATES FEW OR NO CLOUDS BELOW 12,000 FEET WITH NO
SIGNIFICANT WEATHER AND/OR OBSTRUCTIONS TO VISIBILITY.

OHZ001>008-015>018-024>027-034-035-043-044-051000-
   NORTHWEST OHIO

CITY           SKY/WX    TMP DP  RH WIND       PRES   REMARKS
DEFIANCE       CLOUDY    36  31  82 SW6       29.98R
FINDLAY        CLOUDY    35  30  82 W9        29.96R WCI  28
TOLEDO EXPRESS CLOUDY    34  33  96 W12       29.95R WCI  25
TOLEDO EXEC    CLOUDY    36  33  89 W9        29.96R
LIMA           CLOUDY    34  32  92 W12       29.99R WCI  25
$$

OHZ009>014-019>023-028>033-038-089-051000-
   NORTHEAST OHIO

CITY           SKY/WX    TMP DP  RH WIND       PRES   REMARKS
CLE-HOPKINS    CLOUDY    39  32  76 W17       29.93R
CLE-LAKEFRONT  CLOUDY    40  34  79 W25G33    29.89F
CUY CO. ARPT   NOT AVBL
LORAIN-ELYRIA  CLOUDY    36  30  79 W15G26    29.93R
ASHTABULA      CLOUDY    39  36  89 W23G30    29.86R
AKRON-CANTON   CLOUDY    38  33  82 W18G28    29.90R
WOOSTER        CLOUDY    36  31  82 W16       29.93R
MANSFIELD      CLOUDY    33  32  96 W14G21    29.94R WCI  23
YOUNGSTOWN     CLOUDY    39  35  86 W17G31    29.88R
$$

OHZ042-051>053-060>062-070>072-077>081-051000-
  SOUTHWEST OHIO

CITY           SKY/WX    TMP DP  RH WIND       PRES   REMARKS
CINC-COVINGTON CLOUDY    39  36  89 W9        30.03R
CINC-LUNKEN    CLOUDY    41  37  86 W7        30.05R
HAMILTON       CLOUDY    38  32  79 W7        30.06R
DAYTON         CLOUDY    34  30  85 W12       30.03R WCI  25
WRIGHT-PAT AFB CLOUDY    36  33  89 W14       30.02R
DAYTON GENERAL CLOUDY    37  31  78 W8        30.02R
WILMINGTON     CLOUDY    37  34  89 W13       30.02R
$$

OHZ036-037-039>041-045>050-054>059-063>069-073>076-082>088-051000-
  CENTRAL AND SOUTHEAST OHIO

CITY           SKY/WX    TMP DP  RH WIND       PRES   REMARKS
COLUMBUS       CLOUDY    37  36  96 W17       29.99R
OSU AIRPORT    CLOUDY    38  34  85 W14       30.00R
BOLTON FIELD   NOT AVBL
RICKENBACK AFB CLOUDY    38  35  91 W15       30.00R
NEWARK         CLOUDY    40  35  83 W13       29.97R
MARION         CLOUDY    34  31  88 W13       29.98R WCI  25
LANCASTER      CLOUDY    40  35  83 W10G23    29.99R
ZANESVILLE     CLOUDY    42  37  82 W8        29.95S
NEW PHILLY     CLOUDY    41  36  82 W13G21    29.93S
$$




USA.gov is the U.S. government's official web portal to all federal, state and local government web resources and services.